Flag for Canada Weather past 2 weeks in Fredericton, New Brunswick, Canada

Now
32 °F

Light snow. Low clouds.


Feels Like: 23 °F
Forecast: 27 / 31 °F
Wind: 12 mph from Northwest

Location: Fredericton

Current Time: Dec 18, 2014 at 11:58:18 AM

Latest Report: Dec 18, 2014 at 11:00 AM


Visibility: 1 mi

Pressure: 29.46 "Hg

Humidity: 93%

Dew point: 30 °F

Location of FrederictonLocation

Historic Weather in Fredericton — Graph

°F

Fredericton temperature yesterday

Maximum temperature yesterday: 36 °F (at 2:00 PM)
Minimum temperature yesterday: 28 °F (at 12:00 AM)
Average temperature yesterday: 32 °F

Past Weeks' High & Low Weather Summary

 TemperatureHumidityPressure
High46 °F (Dec 11, 3:00 PM)100% (Dec 3, 11:00 AM)30.87 "Hg (Dec 3, 11:00 AM)
Low0 °F (Dec 8, 3:00 AM)41% (Dec 5, 4:00 PM)29.46 "Hg (Dec 18, 11:00 AM)
Average29 °F89%30.05 "Hg
* Reported Dec 3 11:00 AM — Dec 18 11:00 AM, Fredericton, Weather by CustomWeather, © 2014

Note: Actual official high and low records may vary slightly from our data, if they occured in-between our weather recording intervals... More about our weather records

Advertising

Fredericton weather history for previous 24 hours

 ConditionsComfort  
Time TempWeatherWind HumidityBarometerVisibility
11:00 AM
Dec 18
32 °FLight snow. Low clouds.12 mph93%29.46 "Hg1 mi
10:00 AM30 °FLight snow. Low clouds.13 mph100%29.46 "Hg1 mi
9:00 AM30 °FLight snow. Overcast.9 mph100%29.47 "Hg1 mi
8:00 AM30 °FLight snow. Overcast.10 mph100%29.46 "Hg1 mi
7:54 AM30 °FLight snow. Overcast.13 mph100%29.46 "Hg2 mi
7:01 AM30 °FLight snow. Overcast.13 mph100%29.46 "Hg2 mi
6:00 AM30 °FLight snow. Overcast.12 mph100%29.46 "Hg1 mi
5:00 AM32 °FLight snow. Mostly cloudy.14 mph93%29.47 "Hg3 mi
4:55 AM32 °FLight snow. Mostly cloudy.16 mph93%29.47 "Hg3 mi
4:00 AM32 °FLight snow. Mostly cloudy.15 mph93%29.50 "Hg1 mi
3:46 AM32 °FLight snow. Mostly cloudy.14 mph93%29.51 "Hg2 mi
3:00 AM30 °FLight snow. Low clouds.13 mph100%29.53 "Hg1 mi
2:00 AM32 °FLight snow. Mostly cloudy.13 mph93%29.55 "Hg1 mi
1:00 AM32 °FLight snow. Overcast.17 mph93%29.58 "Hg4 mi
12:55 AM32 °FLight snow. Overcast.18 mph93%29.58 "Hg5 mi
12:01 AM30 °FLight snow. Low clouds.15 mph100%29.62 "Hg1 mi
11:00 PM
Dec 17
30 °FLight snow. Overcast.15 mph100%29.68 "Hg1 mi
10:49 PM30 °FLight snow. Overcast.14 mph100%29.70 "Hg1 mi
10:00 PM30 °FLight snow. Mostly cloudy.13 mph100%29.72 "Hg1 mi
9:58 PM30 °FLight snow. Mostly cloudy.14 mph100%29.72 "Hg1 mi
9:00 PM30 °FLight snow. Overcast.13 mph100%29.77 "Hg1 mi
8:00 PM32 °FLight snow. Mostly cloudy.9 mph93%29.80 "Hg1 mi
7:00 PM32 °FLight snow. Mostly cloudy.9 mph100%29.82 "Hg2 mi
6:55 PM32 °FLight snow. Overcast.9 mph93%29.82 "Hg2 mi
6:00 PM34 °FLight snow. Overcast.14 mph87%29.83 "Hg6 mi
5:00 PM34 °FOvercast.13 mph87%29.84 "Hg9 mi
4:52 PM34 °FOvercast.13 mph87%29.84 "Hg9 mi
4:00 PM36 °FOvercast.10 mph81%29.85 "Hg9 mi
3:00 PM36 °FLight rain. Overcast.9 mph81%29.87 "Hg9 mi
2:59 PM36 °FLight rain. More clouds than sun.9 mph81%29.87 "Hg9 mi
2:00 PM36 °FOvercast.7 mph87%29.90 "Hg9 mi
1:00 PM34 °FOvercast.8 mph93%29.91 "Hg9 mi
12:00 PM34 °FMore clouds than sun.6 mph87%29.95 "Hg9 mi
11:00 AM32 °FOvercast.5 mph93%29.99 "Hg9 mi
Weather by CustomWeather, © 2014

See weather overviewHow to use our weather pages